Wetterdaten: Samstag, 17.01.2004
Datum Zeit Temp. A Sch. Temp. A Son. Feuchte A. Luftdruck Regen Wind Richtung Richtung Sonnenschein Helligkeit Taupunkt Windchill
17.01.2004 00:00 3,7 C 3,5 C 71 % 993 hPa 0,0 l/m 4,3 m/s (1 Bft) W-SW22.5 240 0,00 min 0 lux -1,1 C -2,8 C
17.01.2004 00:05 3,7 C 3,5 C 71 % 993 hPa 0,0 l/m 3,6 m/s (1 Bft) W-SW22.5 240 0,00 min 0 lux -1,1 C -1,3 C
17.01.2004 00:10 3,7 C 3,5 C 71 % 993 hPa 0,0 l/m 3,3 m/s (1 Bft) W22.5 260 0,00 min 0 lux -1,1 C -0,6 C
17.01.2004 00:15 3,7 C 3,6 C 71 % 993 hPa 0,0 l/m 4,9 m/s (1 Bft) W-SW22.5 240 0,00 min 0 lux -1,1 C -3,8 C
17.01.2004 00:20 3,7 C 3,6 C 71 % 993 hPa 0,0 l/m 3,9 m/s (1 Bft) W-SW45 250 0,00 min 0 lux -1,1 C -2,1 C
17.01.2004 00:25 3,8 C 3,7 C 71 % 993 hPa 0,0 l/m 4,2 m/s (1 Bft) W-SW22.5 250 0,00 min 0 lux -1,0 C -2,5 C
17.01.2004 00:30 3,9 C 3,8 C 70 % 993 hPa 0,0 l/m 5,4 m/s (1 Bft) W-SW22.5 250 0,00 min 0 lux -1,1 C -4,3 C
17.01.2004 00:35 4,0 C 3,8 C 69 % 993 hPa 0,0 l/m 4,8 m/s (1 Bft) W-SW22.5 250 0,00 min 0 lux -1,2 C -3,2 C
17.01.2004 00:40 4,0 C 3,9 C 69 % 993 hPa 0,0 l/m 5,9 m/s (2 Bft) W-SW45 240 0,00 min 0 lux -1,2 C -4,9 C
17.01.2004 00:45 4,0 C 3,9 C 69 % 993 hPa 0,0 l/m 5,0 m/s (1 Bft) SW45 235 0,00 min 0 lux -1,2 C -3,6 C
17.01.2004 00:50 4,2 C 4,0 C 68 % 994 hPa 0,0 l/m 5,0 m/s (1 Bft) SW45 235 0,00 min 0 lux -1,2 C -3,4 C
17.01.2004 00:55 4,1 C 4,1 C 68 % 994 hPa 0,0 l/m 6,3 m/s (2 Bft) W-SW45 245 0,00 min 0 lux -1,3 C -5,4 C
17.01.2004 01:00 4,1 C 4,1 C 69 % 994 hPa 0,0 l/m 6,7 m/s (2 Bft) W-SW45 245 0,00 min 0 lux -1,1 C -5,8 C
17.01.2004 01:05 4,0 C 4,1 C 70 % 994 hPa 0,0 l/m 5,3 m/s (1 Bft) W-SW67.5 245 0,00 min 0 lux -1,0 C -4,0 C
17.01.2004 01:10 4,0 C 4,1 C 70 % 994 hPa 0,0 l/m 5,1 m/s (1 Bft) W-SW45 240 0,00 min 0 lux -1,0 C -3,8 C
17.01.2004 01:15 3,9 C 4,1 C 72 % 994 hPa 0,0 l/m 6,1 m/s (2 Bft) W-SW67.5 240 0,00 min 0 lux -0,7 C -5,3 C
17.01.2004 01:20 3,8 C 4,1 C 73 % 993 hPa 0,0 l/m 4,6 m/s (1 Bft) W-SW22.5 250 0,00 min 0 lux -0,6 C -3,1 C
17.01.2004 01:25 3,9 C 4,1 C 72 % 994 hPa 0,0 l/m 7,0 m/s (2 Bft) W-SW22.5 245 0,00 min 0 lux -0,7 C -6,5 C
17.01.2004 01:30 3,8 C 4,1 C 72 % 994 hPa 0,0 l/m 5,1 m/s (1 Bft) W-SW22.5 250 0,00 min 0 lux -0,8 C -3,9 C
17.01.2004 01:35 3,9 C 4,0 C 72 % 994 hPa 0,0 l/m 7,4 m/s (2 Bft) W-SW22.5 250 0,00 min 0 lux -0,7 C -6,9 C
17.01.2004 01:40 3,9 C 4,0 C 72 % 994 hPa 0,0 l/m 6,3 m/s (2 Bft) W-SW45 255 0,00 min 0 lux -0,7 C -5,6 C
17.01.2004 01:45 3,9 C 4,1 C 72 % 994 hPa 0,0 l/m 6,9 m/s (2 Bft) W-SW45 255 0,00 min 0 lux -0,7 C -6,4 C
17.01.2004 01:50 3,8 C 4,0 C 72 % 994 hPa 0,0 l/m 5,0 m/s (1 Bft) W-SW22.5 255 0,00 min 0 lux -0,8 C -3,9 C
17.01.2004 01:55 3,7 C 4,0 C 72 % 994 hPa 0,0 l/m 4,4 m/s (1 Bft) W-SW45 250 0,00 min 0 lux -0,9 C -2,9 C
17.01.2004 02:00 3,7 C 4,0 C 73 % 994 hPa 0,0 l/m 4,6 m/s (1 Bft) W-SW22.5 245 0,00 min 0 lux -0,7 C -3,3 C
17.01.2004 02:05 3,7 C 4,0 C 72 % 994 hPa 0,0 l/m 5,3 m/s (1 Bft) W-SW45 255 0,00 min 0 lux -0,9 C -4,5 C
17.01.2004 02:10 3,7 C 3,9 C 72 % 994 hPa 0,0 l/m 4,1 m/s (1 Bft) W-SW22.5 255 0,00 min 0 lux -0,9 C -2,4 C
17.01.2004 02:15 3,8 C 4,0 C 71 % 994 hPa 0,0 l/m 6,5 m/s (2 Bft) W-SW45 250 0,00 min 0 lux -1,0 C -6,0 C
17.01.2004 02:20 3,8 C 4,0 C 72 % 994 hPa 0,0 l/m 6,1 m/s (2 Bft) SW45 235 0,00 min 0 lux -0,8 C -5,5 C
17.01.2004 02:25 3,8 C 4,0 C 71 % 994 hPa 0,0 l/m 9,2 m/s (2 Bft) W-SW45 250 0,00 min 0 lux -1,0 C -8,8 C
17.01.2004 02:30 3,7 C 4,0 C 72 % 994 hPa 0,0 l/m 6,4 m/s (2 Bft) W-SW22.5 245 0,00 min 0 lux -0,9 C -6,0 C
17.01.2004 02:35 3,7 C 3,9 C 72 % 994 hPa 0,0 l/m 5,6 m/s (1 Bft) W-SW45 255 0,00 min 0 lux -0,9 C -4,9 C
17.01.2004 02:40 3,6 C 3,8 C 72 % 994 hPa 0,0 l/m 3,4 m/s (1 Bft) W-SW45 255 0,00 min 0 lux -1,0 C -1,0 C
17.01.2004 02:45 3,6 C 3,8 C 72 % 994 hPa 0,0 l/m 5,8 m/s (2 Bft) W-SW22.5 245 0,00 min 0 lux -1,0 C -5,3 C
17.01.2004 02:50 3,6 C 3,8 C 72 % 994 hPa 0,0 l/m 4,7 m/s (1 Bft) W-SW22.5 250 0,00 min 0 lux -1,0 C -3,6 C
17.01.2004 02:55 3,5 C 3,8 C 73 % 994 hPa 0,0 l/m 4,2 m/s (1 Bft) W-SW22.5 245 0,00 min 0 lux -0,9 C -2,8 C
17.01.2004 03:00 3,4 C 3,7 C 73 % 994 hPa 0,0 l/m 3,9 m/s (1 Bft) W-SW22.5 250 0,00 min 0 lux -1,0 C -2,4 C
17.01.2004 03:05 3,3 C 3,7 C 73 % 994 hPa 0,0 l/m 3,9 m/s (1 Bft) W-SW22.5 250 0,00 min 0 lux -1,1 C -2,5 C
17.01.2004 03:10 3,3 C 3,6 C 73 % 994 hPa 0,0 l/m 3,7 m/s (1 Bft) W-SW22.5 250 0,00 min 0 lux -1,1 C -2,0 C
17.01.2004 03:15 3,3 C 3,6 C 72 % 994 hPa 0,0 l/m 4,7 m/s (1 Bft) W45 260 0,00 min 0 lux -1,3 C -4,0 C
17.01.2004 03:20 3,3 C 3,5 C 72 % 993 hPa 0,0 l/m 5,0 m/s (1 Bft) W-SW22.5 250 0,00 min 0 lux -1,3 C -4,5 C
17.01.2004 03:25 3,3 C 3,5 C 72 % 993 hPa 0,0 l/m 3,9 m/s (1 Bft) W-SW22.5 250 0,00 min 0 lux -1,3 C -2,5 C
17.01.2004 03:30 3,3 C 3,4 C 71 % 994 hPa 0,0 l/m 5,4 m/s (1 Bft) W-SW22.5 250 0,00 min 0 lux -1,4 C -5,2 C
17.01.2004 03:35 3,2 C 3,4 C 72 % 994 hPa 0,0 l/m 4,3 m/s (1 Bft) W-SW22.5 245 0,00 min 0 lux -1,3 C -3,3 C
17.01.2004 03:40 3,3 C 3,4 C 72 % 994 hPa 0,0 l/m 4,6 m/s (1 Bft) W-SW22.5 255 0,00 min 0 lux -1,3 C -3,7 C
17.01.2004 03:45 3,3 C 3,4 C 72 % 994 hPa 0,0 l/m 4,6 m/s (1 Bft) W45 260 0,00 min 0 lux -1,3 C -3,7 C
17.01.2004 03:50 3,3 C 3,5 C 72 % 994 hPa 0,0 l/m 5,9 m/s (2 Bft) W45 260 0,00 min 0 lux -1,3 C -5,9 C
17.01.2004 03:55 3,3 C 3,5 C 72 % 994 hPa 0,0 l/m 6,2 m/s (2 Bft) W-SW45 250 0,00 min 0 lux -1,3 C -6,3 C
17.01.2004 04:00 3,3 C 3,5 C 72 % 994 hPa 0,0 l/m 4,9 m/s (1 Bft) W-SW45 250 0,00 min 0 lux -1,3 C -4,3 C
17.01.2004 04:05 3,3 C 3,5 C 72 % 994 hPa 0,0 l/m 6,0 m/s (2 Bft) W-SW22.5 250 0,00 min 0 lux -1,3 C -6,0 C
17.01.2004 04:10 3,3 C 3,5 C 72 % 994 hPa 0,0 l/m 5,3 m/s (1 Bft) W-SW45 245 0,00 min 0 lux -1,3 C -5,0 C
17.01.2004 04:15 3,3 C 3,5 C 72 % 994 hPa 0,0 l/m 5,2 m/s (1 Bft) W-SW22.5 250 0,00 min 0 lux -1,3 C -4,8 C
17.01.2004 04:20 3,2 C 3,5 C 72 % 994 hPa 0,0 l/m 4,4 m/s (1 Bft) W-SW22.5 250 0,00 min 0 lux -1,3 C -3,5 C
17.01.2004 04:25 3,2 C 3,4 C 73 % 994 hPa 0,0 l/m 3,8 m/s (1 Bft) W45 260 0,00 min 0 lux -1,2 C -2,3 C
17.01.2004 04:30 3,2 C 3,4 C 73 % 994 hPa 0,0 l/m 4,8 m/s (1 Bft) W-SW22.5 250 0,00 min 0 lux -1,2 C -4,3 C
17.01.2004 04:35 3,1 C 3,4 C 73 % 994 hPa 0,0 l/m 3,6 m/s (1 Bft) W-SW45 255 0,00 min 0 lux -1,3 C -2,1 C
17.01.2004 04:40 3,1 C 3,3 C 74 % 994 hPa 0,0 l/m 3,6 m/s (1 Bft) W-SW22.5 250 0,00 min 0 lux -1,1 C -2,1 C
17.01.2004 04:45 3,1 C 3,4 C 74 % 994 hPa 0,0 l/m 4,3 m/s (1 Bft) W-SW45 255 0,00 min 0 lux -1,1 C -3,4 C
17.01.2004 04:50 3,1 C 3,4 C 75 % 994 hPa 0,0 l/m 3,0 m/s (1 Bft) W-SW22.5 240 0,00 min 0 lux -0,9 C -0,6 C
17.01.2004 04:55 3,1 C 3,3 C 76 % 994 hPa 0,0 l/m 3,9 m/s (1 Bft) W-SW22.5 245 0,00 min 0 lux -0,7 C -2,7 C
17.01.2004 05:00 3,2 C 3,4 C 75 % 994 hPa 0,0 l/m 4,2 m/s (1 Bft) W-SW22.5 255 0,00 min 0 lux -0,8 C -3,2 C
17.01.2004 05:05 3,2 C 3,4 C 75 % 994 hPa 0,0 l/m 5,4 m/s (1 Bft) W-SW45 250 0,00 min 0 lux -0,8 C -5,3 C
17.01.2004 05:10 3,3 C 3,4 C 74 % 994 hPa 0,0 l/m 6,2 m/s (2 Bft) W-SW45 250 0,00 min 0 lux -0,9 C -6,3 C
17.01.2004 05:15 3,2 C 3,5 C 75 % 994 hPa 0,0 l/m 5,0 m/s (1 Bft) W-SW22.5 250 0,00 min 0 lux -0,8 C -4,6 C
17.01.2004 05:20 3,2 C 3,4 C 75 % 994 hPa 0,0 l/m 5,1 m/s (1 Bft) W-SW45 240 0,00 min 0 lux -0,8 C -4,8 C
17.01.2004 05:25 3,1 C 3,4 C 77 % 995 hPa 0,0 l/m 4,9 m/s (1 Bft) W-SW22.5 250 0,00 min 0 lux -0,5 C -4,6 C
17.01.2004 05:30 3,1 C 3,4 C 76 % 994 hPa 0,0 l/m 6,2 m/s (2 Bft) W-SW45 255 0,00 min 0 lux -0,7 C -6,5 C
17.01.2004 05:35 3,1 C 3,4 C 76 % 994 hPa 0,0 l/m 4,1 m/s (1 Bft) W-SW45 255 0,00 min 0 lux -0,7 C -3,0 C
17.01.2004 05:40 3,1 C 3,4 C 76 % 994 hPa 0,0 l/m 4,5 m/s (1 Bft) W-SW22.5 250 0,00 min 0 lux -0,7 C -3,9 C
17.01.2004 05:45 3,2 C 3,3 C 76 % 994 hPa 0,0 l/m 4,8 m/s (1 Bft) W45 260 0,00 min 0 lux -0,6 C -4,3 C
17.01.2004 05:50 3,2 C 3,4 C 76 % 994 hPa 0,0 l/m 3,6 m/s (1 Bft) W-SW22.5 245 0,00 min 0 lux -0,6 C -1,8 C
17.01.2004 05:55 3,2 C 3,3 C 76 % 995 hPa 0,0 l/m 4,3 m/s (1 Bft) W-SW45 250 0,00 min 0 lux -0,6 C -3,4 C
17.01.2004 06:00 3,2 C 3,4 C 76 % 995 hPa 0,0 l/m 3,4 m/s (1 Bft) W-SW45 250 0,00 min 0 lux -0,6 C -1,6 C
17.01.2004 06:05 3,2 C 3,4 C 76 % 995 hPa 0,0 l/m 4,1 m/s (1 Bft) W-SW22.5 245 0,00 min 0 lux -0,6 C -3,0 C
17.01.2004 06:10 3,2 C 3,4 C 76 % 995 hPa 0,0 l/m 4,6 m/s (1 Bft) W-SW22.5 245 0,00 min 0 lux -0,6 C -3,9 C
17.01.2004 06:15 3,3 C 3,4 C 75 % 995 hPa 0,0 l/m 4,1 m/s (1 Bft) W-SW22.5 250 0,00 min 0 lux -0,7 C -2,8 C
17.01.2004 06:20 3,3 C 3,4 C 75 % 995 hPa 0,0 l/m 4,4 m/s (1 Bft) W-SW45 250 0,00 min 0 lux -0,7 C -3,5 C
17.01.2004 06:25 3,3 C 3,4 C 75 % 995 hPa 0,0 l/m 6,1 m/s (2 Bft) W-SW22.5 250 0,00 min 0 lux -0,7 C -6,2 C
17.01.2004 06:30 3,2 C 3,4 C 76 % 995 hPa 0,0 l/m 5,5 m/s (1 Bft) W-SW45 240 0,00 min 0 lux -0,6 C -5,4 C
17.01.2004 06:35 3,2 C 3,4 C 76 % 995 hPa 0,0 l/m 4,9 m/s (1 Bft) W-SW22.5 250 0,00 min 0 lux -0,6 C -4,4 C
17.01.2004 06:40 3,1 C 3,4 C 76 % 995 hPa 0,0 l/m 4,1 m/s (1 Bft) W-SW45 250 0,00 min 0 lux -0,7 C -3,0 C
17.01.2004 06:45 3,1 C 3,4 C 77 % 995 hPa 0,0 l/m 3,2 m/s (1 Bft) W-SW45 245 0,00 min 0 lux -0,5 C -1,2 C
17.01.2004 06:50 3,0 C 3,4 C 77 % 995 hPa 0,0 l/m 4,3 m/s (1 Bft) W-SW67.5 250 0,00 min 0 lux -0,6 C -3,7 C
17.01.2004 06:55 2,9 C 3,3 C 78 % 995 hPa 0,0 l/m 4,1 m/s (1 Bft) SW45 235 0,00 min 0 lux -0,5 C -3,3 C
17.01.2004 07:00 2,8 C 3,3 C 79 % 995 hPa 0,0 l/m 3,9 m/s (1 Bft) W-SW22.5 245 0,00 min 0 lux -0,5 C -3,1 C
17.01.2004 07:05 2,8 C 3,3 C 79 % 996 hPa 0,0 l/m 3,9 m/s (1 Bft) W-SW22.5 245 0,00 min 0 lux -0,5 C -3,1 C
17.01.2004 07:10 2,8 C 3,2 C 79 % 996 hPa 0,0 l/m 4,2 m/s (1 Bft) W-SW45 245 0,00 min 0 lux -0,5 C -3,7 C
17.01.2004 07:15 2,8 C 3,2 C 78 % 995 hPa 0,0 l/m 5,5 m/s (1 Bft) W-SW22.5 250 0,00 min 0 lux -0,6 C -6,0 C
17.01.2004 07:20 2,7 C 3,1 C 78 % 996 hPa 0,0 l/m 4,3 m/s (1 Bft) W-SW22.5 245 0,00 min 0 lux -0,7 C -4,0 C
17.01.2004 07:25 2,7 C 3,0 C 77 % 996 hPa 0,0 l/m 5,1 m/s (1 Bft) W-SW22.5 250 0,00 min 0 lux -0,9 C -5,4 C
17.01.2004 07:30 2,7 C 3,0 C 77 % 996 hPa 0,0 l/m 5,6 m/s (1 Bft) W-SW45 250 0,00 min 0 lux -0,9 C -6,2 C
17.01.2004 07:35 2,7 C 3,0 C 77 % 996 hPa 0,0 l/m 5,7 m/s (1 Bft) W-SW22.5 245 0,00 min 0 lux -0,9 C -6,4 C
17.01.2004 07:40 2,7 C 3,0 C 77 % 996 hPa 0,0 l/m 5,7 m/s (1 Bft) W-SW45 245 0,00 min 0 lux -0,9 C -6,4 C
17.01.2004 07:45 2,7 C 3,0 C 78 % 996 hPa 0,0 l/m 6,6 m/s (2 Bft) W-SW45 240 0,00 min 0 lux -0,7 C -7,6 C
17.01.2004 07:50 2,8 C 3,0 C 78 % 996 hPa 0,0 l/m 9,3 m/s (2 Bft) W-SW67.5 255 0,00 min 0 lux -0,6 C -10,4 C
17.01.2004 07:55 2,8 C 3,0 C 77 % 996 hPa 0,0 l/m 5,9 m/s (2 Bft) W-SW22.5 255 0,00 min 0 lux -0,8 C -6,6 C
17.01.2004 08:00 2,7 C 3,0 C 77 % 996 hPa 0,0 l/m 5,1 m/s (1 Bft) W-SW22.5 250 0,00 min 0 lux -0,9 C -5,4 C
17.01.2004 08:05 2,6 C 3,0 C 78 % 996 hPa 0,0 l/m 4,3 m/s (1 Bft) W-SW22.5 250 0,00 min 0 lux -0,8 C -4,0 C
17.01.2004 08:10 2,5 C 3,0 C 79 % 996 hPa 0,0 l/m 3,8 m/s (1 Bft) W-SW45 245 0,00 min 0 lux -0,8 C -3,1 C
17.01.2004 08:15 2,5 C 2,9 C 80 % 997 hPa 0,0 l/m 3,3 m/s (1 Bft) W-SW22.5 240 0,00 min 49 lux -0,6 C -2,0 C
17.01.2004 08:20 2,4 C 2,9 C 81 % 997 hPa 0,0 l/m 3,2 m/s (1 Bft) W-SW45 240 0,00 min 141 lux -0,5 C -1,8 C
17.01.2004 08:25 2,3 C 2,8 C 82 % 997 hPa 0,0 l/m 3,6 m/s (1 Bft) W-SW45 245 0,00 min 207 lux -0,4 C -3,0 C
17.01.2004 08:30 2,3 C 2,8 C 83 % 997 hPa 0,0 l/m 3,6 m/s (1 Bft) W-SW45 240 0,00 min 506 lux -0,3 C -2,9 C
17.01.2004 08:35 2,3 C 2,7 C 83 % 997 hPa 0,0 l/m 4,5 m/s (1 Bft) W-SW22.5 255 0,00 min 761 lux -0,3 C -4,9 C
17.01.2004 08:40 2,0 C 2,6 C 83 % 997 hPa 0,0 l/m 4,1 m/s (1 Bft) W-SW22.5 245 0,00 min 1,07 klux -0,6 C -4,4 C
17.01.2004 08:45 2,0 C 2,5 C 84 % 997 hPa 0,0 l/m 4,5 m/s (1 Bft) W-SW22.5 250 0,00 min 3,04 klux -0,4 C -5,2 C
17.01.2004 08:50 2,1 C 2,5 C 84 % 997 hPa 0,0 l/m 4,5 m/s (1 Bft) W-SW22.5 240 5,00 min 4,84 klux -0,3 C -5,1 C
17.01.2004 08:55 2,1 C 2,4 C 83 % 997 hPa 0,0 l/m 3,1 m/s (1 Bft) SW45 235 5,00 min 6,94 klux -0,5 C -2,1 C
17.01.2004 09:00 2,1 C 2,4 C 83 % 997 hPa 0,0 l/m 3,4 m/s (1 Bft) W-SW22.5 245 5,00 min 6,47 klux -0,5 C -2,8 C
17.01.2004 09:05 2,4 C 2,4 C 82 % 997 hPa 0,0 l/m 3,9 m/s (1 Bft) W-SW45 245 0,00 min 4,27 klux -0,4 C -3,6 C
17.01.2004 09:10 2,4 C 2,5 C 81 % 997 hPa 0,0 l/m 4,9 m/s (1 Bft) W-SW22.5 240 0,00 min 3,63 klux -0,5 C -5,4 C
17.01.2004 09:15 2,4 C 2,6 C 81 % 997 hPa 0,0 l/m 4,6 m/s (1 Bft) W-SW22.5 245 0,00 min 3,79 klux -0,5 C -4,8 C
17.01.2004 09:20 2,5 C 2,6 C 81 % 997 hPa 0,0 l/m 4,1 m/s (1 Bft) W-SW45 240 5,00 min 14,9 klux -0,4 C -3,8 C
17.01.2004 09:25 2,6 C 2,7 C 81 % 997 hPa 0,0 l/m 4,4 m/s (1 Bft) W-SW45 240 0,00 min 6,91 klux -0,3 C -4,4 C
17.01.2004 09:30 2,7 C 2,7 C 81 % 997 hPa 0,0 l/m 4,0 m/s (1 Bft) W-SW22.5 250 0,00 min 4,41 klux -0,2 C -3,3 C
17.01.2004 09:35 2,8 C 2,8 C 79 % 997 hPa 0,0 l/m 5,5 m/s (1 Bft) SW67.5 235 0,00 min 4,34 klux -0,5 C -5,9 C
17.01.2004 09:40 2,8 C 2,9 C 78 % 997 hPa 0,0 l/m 5,2 m/s (1 Bft) W-SW67.5 240 0,00 min 4,11 klux -0,6 C -5,5 C
17.01.2004 09:45 2,9 C 3,0 C 77 % 997 hPa 0,0 l/m 4,6 m/s (1 Bft) SW45 235 0,00 min 4,11 klux -0,7 C -4,2 C
17.01.2004 09:50 2,9 C 3,0 C 77 % 997 hPa 0,0 l/m 5,3 m/s (1 Bft) W-SW67.5 250 0,00 min 4,75 klux -0,7 C -5,4 C
17.01.2004 09:55 3,0 C 3,0 C 75 % 997 hPa 0,0 l/m 5,9 m/s (2 Bft) W-SW45 245 0,00 min 4,42 klux -1,0 C -6,3 C
17.01.2004 10:00 3,0 C 3,1 C 75 % 997 hPa 0,0 l/m 6,0 m/s (2 Bft) W-SW45 240 0,00 min 4,29 klux -1,0 C -6,4 C
17.01.2004 10:05 3,0 C 3,2 C 74 % 997 hPa 0,0 l/m 6,3 m/s (2 Bft) SW67.5 230 0,00 min 5,12 klux -1,2 C -6,8 C
17.01.2004 10:10 3,0 C 3,1 C 74 % 997 hPa 0,0 l/m 4,6 m/s (1 Bft) SW22.5 235 0,00 min 4,05 klux -1,2 C -4,1 C
17.01.2004 10:15 3,1 C 3,2 C 74 % 998 hPa 0,0 l/m 5,3 m/s (1 Bft) W-SW45 255 0,00 min 4,52 klux -1,1 C -5,2 C
17.01.2004 10:20 3,1 C 3,2 C 74 % 998 hPa 0,0 l/m 3,8 m/s (1 Bft) W-SW22.5 245 0,00 min 5,52 klux -1,1 C -2,5 C
17.01.2004 10:25 3,2 C 3,3 C 73 % 998 hPa 0,0 l/m 4,3 m/s (1 Bft) W-SW45 240 0,00 min 4,85 klux -1,2 C -3,3 C
17.01.2004 10:30 3,2 C 3,3 C 73 % 998 hPa 0,0 l/m 5,2 m/s (1 Bft) W-SW22.5 250 0,00 min 4,74 klux -1,2 C -4,9 C
17.01.2004 10:35 3,2 C 3,3 C 73 % 998 hPa 0,0 l/m 5,2 m/s (1 Bft) W-SW45 245 0,00 min 4,18 klux -1,2 C -5,0 C
17.01.2004 10:40 3,2 C 3,4 C 73 % 998 hPa 0,0 l/m 5,5 m/s (1 Bft) W-SW45 240 0,00 min 4,65 klux -1,2 C -5,4 C
17.01.2004 10:45 3,3 C 3,4 C 73 % 998 hPa 0,0 l/m 4,7 m/s (1 Bft) W-SW67.5 240 0,00 min 4,91 klux -1,1 C -4,0 C
17.01.2004 10:50 3,4 C 3,4 C 73 % 998 hPa 0,0 l/m 4,7 m/s (1 Bft) W-SW67.5 240 0,00 min 6,31 klux -1,0 C -3,9 C
17.01.2004 10:55 3,5 C 3,6 C 73 % 998 hPa 0,0 l/m 4,4 m/s (1 Bft) W-SW45 240 0,00 min 6,98 klux -0,9 C -3,3 C
17.01.2004 11:00 3,5 C 3,6 C 73 % 998 hPa 0,0 l/m 3,4 m/s (1 Bft) W-SW45 245 0,00 min 10,0 klux -0,9 C -1,2 C
17.01.2004 11:05 3,6 C 3,7 C 73 % 998 hPa 0,0 l/m 3,4 m/s (1 Bft) W-SW45 245 0,00 min 9,6 klux -0,8 C -1,0 C
17.01.2004 11:10 3,7 C 3,8 C 72 % 998 hPa 0,0 l/m 5,4 m/s (1 Bft) SW45 235 0,00 min 7,94 klux -0,9 C -4,6 C
17.01.2004 11:15 3,7 C 3,8 C 72 % 998 hPa 0,0 l/m 6,1 m/s (2 Bft) SW67.5 230 0,00 min 7,87 klux -0,9 C -5,6 C
17.01.2004 11:20 3,8 C 3,9 C 71 % 998 hPa 0,0 l/m 5,3 m/s (1 Bft) SW45 235 0,00 min 8,80 klux -1,0 C -4,3 C
17.01.2004 11:25 3,9 C 4,0 C 71 % 998 hPa 0,0 l/m 5,0 m/s (1 Bft) SW67.5 235 0,00 min 8,53 klux -0,9 C -3,8 C
17.01.2004 11:30 4,0 C 4,1 C 69 % 998 hPa 0,0 l/m 5,6 m/s (1 Bft) W-SW45 250 0,00 min 7,51 klux -1,2 C -4,5 C
17.01.2004 11:35 4,0 C 4,1 C 69 % 998 hPa 0,0 l/m 5,2 m/s (1 Bft) SW45 235 0,00 min 6,89 klux -1,2 C -3,9 C
17.01.2004 11:40 4,0 C 4,2 C 69 % 998 hPa 0,0 l/m 7,2 m/s (2 Bft) SW45 230 0,00 min 7,70 klux -1,2 C -6,6 C
17.01.2004 11:45 4,0 C 4,2 C 69 % 998 hPa 0,0 l/m 4,4 m/s (1 Bft) W-SW45 240 0,00 min 6,87 klux -1,2 C -2,5 C
17.01.2004 11:50 4,0 C 4,2 C 69 % 998 hPa 0,0 l/m 4,4 m/s (1 Bft) W-SW45 240 0,00 min 7,86 klux -1,2 C -2,5 C
17.01.2004 11:55 4,1 C 4,2 C 69 % 998 hPa 0,0 l/m 4,6 m/s (1 Bft) W-SW22.5 250 0,00 min 9,5 klux -1,1 C -2,8 C
17.01.2004 12:00 4,1 C 4,3 C 69 % 998 hPa 0,0 l/m 4,7 m/s (1 Bft) W-SW67.5 240 0,00 min 7,35 klux -1,1 C -2,9 C
17.01.2004 12:05 4,2 C 4,4 C 68 % 998 hPa 0,0 l/m 7,4 m/s (2 Bft) W-SW22.5 245 0,00 min 9,5 klux -1,2 C -6,5 C
17.01.2004 12:10 4,3 C 4,4 C 67 % 998 hPa 0,0 l/m 6,4 m/s (2 Bft) W-SW45 240 0,00 min 9,0 klux -1,3 C -5,2 C
17.01.2004 12:15 4,3 C 4,5 C 66 % 998 hPa 0,0 l/m 6,2 m/s (2 Bft) W-SW67.5 250 0,00 min 7,85 klux -1,5 C -5,0 C
17.01.2004 12:20 4,4 C 4,5 C 65 % 998 hPa 0,0 l/m 5,6 m/s (1 Bft) W-SW67.5 250 0,00 min 9,4 klux -1,6 C -4,1 C
17.01.2004 12:25 4,4 C 4,6 C 65 % 998 hPa 0,0 l/m 6,7 m/s (2 Bft) W-SW45 250 0,00 min 12,0 klux -1,6 C -5,5 C
17.01.2004 12:30 4,5 C 4,6 C 65 % 998 hPa 0,0 l/m 6,9 m/s (2 Bft) W-SW45 250 0,00 min 12,2 klux -1,5 C -5,6 C
17.01.2004 12:35 4,4 C 4,7 C 64 % 998 hPa 0,0 l/m 7,1 m/s (2 Bft) W-SW45 250 0,00 min 11,2 klux -1,8 C -5,9 C
17.01.2004 12:40 4,5 C 4,8 C 64 % 998 hPa 0,0 l/m 6,1 m/s (2 Bft) W-SW67.5 250 0,00 min 13,5 klux -1,7 C -4,6 C
17.01.2004 12:45 4,6 C 4,9 C 63 % 998 hPa 0,0 l/m 8,8 m/s (2 Bft) W-SW45 240 0,00 min 19,8 klux -1,8 C -7,3 C
17.01.2004 12:50 4,7 C 5,0 C 63 % 998 hPa 0,0 l/m 7,7 m/s (2 Bft) W-SW22.5 240 0,00 min 16,1 klux -1,7 C -6,2 C
17.01.2004 12:55 4,6 C 5,1 C 62 % 998 hPa 0,0 l/m 7,6 m/s (2 Bft) W-SW67.5 245 0,00 min 15,5 klux -2,0 C -6,2 C
17.01.2004 13:00 4,6 C 5,1 C 62 % 998 hPa 0,0 l/m 8,5 m/s (2 Bft) W-SW45 250 5,00 min 42,3 klux -2,0 C -7,1 C
17.01.2004 13:05 4,9 C 5,1 C 62 % 998 hPa 0,0 l/m 8,4 m/s (2 Bft) W-SW45 245 5,00 min 47,0 klux -1,8 C -6,6 C
17.01.2004 13:10 5,3 C 5,2 C 60 % 998 hPa 0,0 l/m 6,3 m/s (2 Bft) W-SW45 250 5,00 min 52,7 klux -1,8 C -3,7 C
17.01.2004 13:15 5,2 C 5,3 C 59 % 998 hPa 0,0 l/m 7,2 m/s (2 Bft) W-SW67.5 240 0,00 min 18,1 klux -2,1 C -5,0 C
17.01.2004 13:20 4,9 C 5,4 C 60 % 998 hPa 0,0 l/m 8,6 m/s (2 Bft) W-SW45 240 5,00 min 45,6 klux -2,2 C -6,8 C
17.01.2004 13:25 5,0 C 5,4 C 59 % 998 hPa 0,0 l/m 6,9 m/s (2 Bft) W-SW67.5 250 5,00 min 46,4 klux -2,3 C -4,9 C
17.01.2004 13:30 4,9 C 5,4 C 60 % 998 hPa 0,0 l/m 5,9 m/s (2 Bft) W-SW67.5 250 0,00 min 12,9 klux -2,2 C -3,7 C
17.01.2004 13:35 4,7 C 5,3 C 60 % 998 hPa 0,0 l/m 6,4 m/s (2 Bft) W45 260 0,00 min 12,6 klux -2,4 C -4,7 C
17.01.2004 13:40 4,6 C 5,3 C 60 % 998 hPa 0,0 l/m 6,4 m/s (2 Bft) W-SW45 245 0,00 min 10,7 klux -2,5 C -4,8 C
17.01.2004 13:45 4,6 C 5,2 C 60 % 998 hPa 0,0 l/m 6,9 m/s (2 Bft) W-SW45 250 0,00 min 8,88 klux -2,5 C -5,5 C
17.01.2004 13:50 4,4 C 5,1 C 61 % 998 hPa 0,0 l/m 5,4 m/s (1 Bft) W-SW45 250 0,00 min 10,0 klux -2,4 C -3,7 C
17.01.2004 13:55 4,4 C 5,0 C 60 % 998 hPa 0,0 l/m 6,5 m/s (2 Bft) W-SW45 240 0,00 min 7,78 klux -2,7 C -5,3 C
17.01.2004 14:00 4,4 C 5,0 C 60 % 998 hPa 0,0 l/m 5,0 m/s (1 Bft) W-SW45 245 0,00 min 8,22 klux -2,7 C -3,1 C
17.01.2004 14:05 4,4 C 4,9 C 60 % 998 hPa 0,0 l/m 4,8 m/s (1 Bft) W-SW45 240 0,00 min 8,61 klux -2,7 C -2,8 C
17.01.2004 14:10 4,4 C 4,9 C 60 % 998 hPa 0,0 l/m 5,4 m/s (1 Bft) W-SW45 245 0,00 min 10,2 klux -2,7 C -3,7 C
17.01.2004 14:15 4,5 C 5,0 C 61 % 998 hPa 0,0 l/m 5,0 m/s (1 Bft) W-SW45 245 0,00 min 9,8 klux -2,4 C -3,0 C
17.01.2004 14:20 4,5 C 5,0 C 61 % 998 hPa 0,0 l/m 5,0 m/s (1 Bft) W-SW45 245 0,00 min 9,8 klux -2,4 C -3,0 C
17.01.2004 14:25 4,6 C 5,0 C 60 % 998 hPa 0,0 l/m 5,8 m/s (2 Bft) W-SW22.5 250 0,00 min 10,5 klux -2,5 C -4,0 C
17.01.2004 14:30 4,7 C 5,0 C 60 % 998 hPa 0,0 l/m 3,9 m/s (1 Bft) W-SW45 250 0,00 min 16,1 klux -2,4 C -0,8 C
17.01.2004 14:35 4,8 C 5,1 C 60 % 998 hPa 0,0 l/m 5,7 m/s (1 Bft) W-SW45 250 0,00 min 12,3 klux -2,3 C -3,7 C
17.01.2004 14:40 4,7 C 5,1 C 60 % 998 hPa 0,0 l/m 5,0 m/s (1 Bft) SW67.5 235 0,00 min 10,2 klux -2,4 C -2,8 C
17.01.2004 14:45 4,6 C 5,1 C 60 % 998 hPa 0,0 l/m 5,5 m/s (1 Bft) W-SW45 255 0,00 min 11,6 klux -2,5 C -3,6 C
17.01.2004 14:50 4,7 C 5,2 C 61 % 998 hPa 0,0 l/m 5,2 m/s (1 Bft) W-SW45 250 0,00 min 11,6 klux -2,2 C -3,0 C
17.01.2004 14:55 4,7 C 5,2 C 60 % 998 hPa 0,0 l/m 4,0 m/s (1 Bft) W-SW45 255 5,00 min 16,6 klux -2,4 C -1,0 C
17.01.2004 15:00 4,8 C 5,2 C 60 % 998 hPa 0,0 l/m 5,3 m/s (1 Bft) W-SW22.5 245 0,00 min 6,74 klux -2,3 C -3,1 C
17.01.2004 15:05 4,9 C 5,2 C 60 % 998 hPa 0,0 l/m 3,3 m/s (1 Bft) W-SW22.5 240 0,00 min 7,83 klux -2,2 C 0,8 C
17.01.2004 15:10 4,9 C 5,2 C 60 % 998 hPa 0,0 l/m 6,3 m/s (2 Bft) SW45 235 0,00 min 10,9 klux -2,2 C -4,3 C
17.01.2004 15:15 4,8 C 5,2 C 60 % 998 hPa 0,0 l/m 5,4 m/s (1 Bft) W-SW45 250 0,00 min 9,4 klux -2,3 C -3,2 C
17.01.2004 15:20 5,0 C 5,2 C 59 % 998 hPa 0,0 l/m 5,2 m/s (1 Bft) SW45 235 0,00 min 6,89 klux -2,3 C -2,6 C
17.01.2004 15:25 4,9 C 5,2 C 60 % 998 hPa 0,0 l/m 6,1 m/s (2 Bft) W-SW22.5 250 0,00 min 8,88 klux -2,2 C -4,1 C
17.01.2004 15:30 5,0 C 5,2 C 59 % 998 hPa 0,0 l/m 3,8 m/s (1 Bft) SW45 235 0,00 min 6,75 klux -2,3 C -0,2 C
17.01.2004 15:35 4,8 C 5,3 C 60 % 998 hPa 0,0 l/m 5,7 m/s (1 Bft) W-SW22.5 245 5,00 min 20,1 klux -2,3 C -3,7 C
17.01.2004 15:40 4,8 C 5,2 C 61 % 998 hPa 0,0 l/m 5,6 m/s (1 Bft) W-SW45 250 0,00 min 4,88 klux -2,1 C -3,4 C
17.01.2004 15:45 4,8 C 5,2 C 62 % 998 hPa 0,0 l/m 4,2 m/s (1 Bft) W-SW67.5 240 0,00 min 4,31 klux -1,9 C -1,2 C
17.01.2004 15:50 4,7 C 5,2 C 62 % 998 hPa 0,0 l/m 4,6 m/s (1 Bft) W-SW67.5 240 0,00 min 3,93 klux -1,9 C -2,0 C
17.01.2004 15:55 4,6 C 5,1 C 62 % 998 hPa 0,0 l/m 5,4 m/s (1 Bft) W-SW45 240 0,00 min 3,86 klux -2,0 C -3,4 C
17.01.2004 16:00 4,6 C 5,0 C 62 % 998 hPa 0,0 l/m 3,2 m/s (1 Bft) W-SW45 245 0,00 min 2,89 klux -2,0 C 0,7 C
17.01.2004 16:05 4,5 C 5,0 C 62 % 998 hPa 0,0 l/m 5,1 m/s (1 Bft) SW45 230 0,00 min 3,55 klux -2,1 C -3,1 C
17.01.2004 16:10 4,4 C 5,0 C 63 % 998 hPa 0,0 l/m 3,2 m/s (1 Bft) SW45 235 5,00 min 8,44 klux -2,0 C 0,4 C
17.01.2004 16:15 4,4 C 4,9 C 63 % 998 hPa 0,0 l/m 3,6 m/s (1 Bft) W-SW22.5 245 5,00 min 9,2 klux -2,0 C -0,5 C
17.01.2004 16:20 4,1 C 4,8 C 64 % 998 hPa 0,0 l/m 4,8 m/s (1 Bft) SW45 230 0,00 min 3,61 klux -2,1 C -3,1 C
17.01.2004 16:25 3,9 C 4,7 C 66 % 998 hPa 0,0 l/m 3,0 m/s (1 Bft) W-SW45 240 0,00 min 2,89 klux -1,9 C 0,3 C
17.01.2004 16:30 3,9 C 4,6 C 66 % 998 hPa 0,0 l/m 2,7 m/s (1 Bft) SW22.5 225 0,00 min 1,97 klux -1,9 C 1,1 C
17.01.2004 16:35 3,7 C 4,5 C 66 % 998 hPa 0,0 l/m 4,8 m/s (1 Bft) W-SW45 240 0,00 min 1,34 klux -2,0 C -3,6 C
17.01.2004 16:40 3,6 C 4,4 C 67 % 999 hPa 0,0 l/m 4,0 m/s (1 Bft) SW45 235 0,00 min 908 lux -1,9 C -2,2 C
17.01.2004 16:45 3,6 C 4,2 C 67 % 999 hPa 0,0 l/m 2,9 m/s (1 Bft) W-SW22.5 245 0,00 min 655 lux -1,9 C 0,2 C
17.01.2004 16:50 3,4 C 4,1 C 67 % 999 hPa 0,0 l/m 2,4 m/s (1 Bft) SW22.5 230 0,00 min 563 lux -2,1 C 1,3 C
17.01.2004 16:55 3,3 C 4,0 C 68 % 999 hPa 0,0 l/m 3,4 m/s (1 Bft) W-SW45 245 0,00 min 444 lux -2,0 C -1,3 C
17.01.2004 17:00 3,2 C 3,9 C 69 % 999 hPa 0,0 l/m 1,4 m/s (1 Bft) W-SW22.5 250 0,00 min 277 lux -1,9 C 3,2 C
17.01.2004 17:05 3,1 C 3,7 C 69 % 999 hPa 0,0 l/m 1,4 m/s (1 Bft) W-SW22.5 245 0,00 min 174 lux -2,0 C 3,1 C
17.01.2004 17:10 3,1 C 3,7 C 70 % 999 hPa 0,0 l/m 1,4 m/s (1 Bft) SW22.5 235 0,00 min 89 lux -1,8 C 3,1 C
17.01.2004 17:15 2,8 C 3,5 C 71 % 999 hPa 0,0 l/m 0,1 m/s (0 Bft) W-SW22.5 255 0,00 min 49 lux -1,9 C 2,8 C
17.01.2004 17:20 2,8 C 3,4 C 72 % 999 hPa 0,0 l/m 1,3 m/s (1 Bft) W-SW22.5 250 0,00 min 27 lux -1,7 C 2,8 C
17.01.2004 17:25 2,7 C 3,3 C 72 % 999 hPa 0,0 l/m 3,0 m/s (1 Bft) W-SW45 240 0,00 min 16 lux -1,8 C -1,1 C
17.01.2004 17:30 3,0 C 3,3 C 72 % 999 hPa 0,0 l/m 3,4 m/s (1 Bft) W-SW67.5 245 0,00 min 9 lux -1,5 C -1,7 C
17.01.2004 17:35 3,0 C 3,2 C 71 % 999 hPa 0,0 l/m 3,1 m/s (1 Bft) W-SW22.5 250 0,00 min 4 lux -1,7 C -0,9 C
17.01.2004 17:40 3,1 C 3,2 C 71 % 999 hPa 0,0 l/m 3,1 m/s (1 Bft) SW22.5 235 0,00 min 1 lux -1,6 C -0,8 C
17.01.2004 17:45 3,0 C 3,2 C 71 % 999 hPa 0,0 l/m 3,2 m/s (1 Bft) W-SW22.5 240 0,00 min 0 lux -1,7 C -1,3 C
17.01.2004 17:50 3,0 C 3,2 C 71 % 999 hPa 0,0 l/m 2,2 m/s (1 Bft) SW45 235 0,00 min 0 lux -1,7 C 1,6 C
17.01.2004 17:55 3,0 C 3,2 C 71 % 999 hPa 0,0 l/m 1,2 m/s (1 Bft) W-SW22.5 245 0,00 min 0 lux -1,7 C 3,0 C
17.01.2004 18:00 3,0 C 3,1 C 71 % 999 hPa 0,0 l/m 1,9 m/s (1 Bft) W-SW22.5 255 0,00 min 0 lux -1,7 C 2,4 C
17.01.2004 18:05 3,0 C 3,1 C 71 % 999 hPa 0,0 l/m 2,1 m/s (1 Bft) W-SW22.5 240 0,00 min 0 lux -1,7 C 2,1 C
17.01.2004 18:10 3,0 C 3,0 C 71 % 999 hPa 0,0 l/m 2,9 m/s (1 Bft) W-SW45 250 0,00 min 0 lux -1,7 C -0,4 C
17.01.2004 18:15 3,0 C 3,0 C 71 % 999 hPa 0,0 l/m 2,7 m/s (1 Bft) W-SW22.5 245 0,00 min 0 lux -1,7 C 0,0 C
17.01.2004 18:20 2,8 C 3,0 C 72 % 999 hPa 0,0 l/m 1,9 m/s (1 Bft) W-SW22.5 240 0,00 min 0 lux -1,7 C 2,2 C
17.01.2004 18:25 2,8 C 2,9 C 72 % 999 hPa 0,0 l/m 2,6 m/s (1 Bft) W-SW45 250 0,00 min 0 lux -1,7 C 0,1 C
17.01.2004 18:30 2,7 C 2,8 C 72 % 999 hPa 0,0 l/m 2,6 m/s (1 Bft) W-SW22.5 240 0,00 min 0 lux -1,8 C 0,0 C
17.01.2004 18:35 3,0 C 2,8 C 71 % 999 hPa 0,0 l/m 3,1 m/s (1 Bft) W-SW45 250 0,00 min 0 lux -1,7 C -0,9 C
17.01.2004 18:40 3,0 C 2,9 C 71 % 999 hPa 0,0 l/m 2,6 m/s (1 Bft) W-SW22.5 255 0,00 min 0 lux -1,7 C 0,5 C
17.01.2004 18:45 3,0 C 2,9 C 71 % 999 hPa 0,0 l/m 2,4 m/s (1 Bft) W-SW22.5 245 0,00 min 0 lux -1,7 C 1,0 C
17.01.2004 18:50 3,0 C 3,0 C 71 % 999 hPa 0,0 l/m 2,8 m/s (1 Bft) W-SW45 250 0,00 min 0 lux -1,7 C -0,1 C
17.01.2004 18:55 3,1 C 3,0 C 70 % 999 hPa 0,0 l/m 3,0 m/s (1 Bft) W-SW45 255 0,00 min 0 lux -1,8 C -0,5 C
17.01.2004 19:00 3,1 C 3,1 C 70 % 999 hPa 0,0 l/m 2,4 m/s (1 Bft) W22.5 270 0,00 min 0 lux -1,8 C 0,9 C
17.01.2004 19:05 3,1 C 3,1 C 70 % 999 hPa 0,0 l/m 1,9 m/s (1 Bft) W-SW45 250 0,00 min 0 lux -1,8 C 2,5 C
17.01.2004 19:10 3,1 C 3,2 C 70 % 999 hPa 0,0 l/m 3,0 m/s (1 Bft) W-SW67.5 255 0,00 min 0 lux -1,8 C -0,6 C
17.01.2004 19:15 3,2 C 3,2 C 69 % 999 hPa 0,0 l/m 3,6 m/s (1 Bft) W-SW67.5 245 0,00 min 0 lux -1,9 C -2,0 C
17.01.2004 19:20 3,2 C 3,2 C 69 % 1000 hPa 0,0 l/m 3,5 m/s (1 Bft) W-SW22.5 255 0,00 min 0 lux -1,9 C -1,7 C
17.01.2004 19:25 3,2 C 3,2 C 69 % 1000 hPa 0,0 l/m 2,2 m/s (1 Bft) W-SW22.5 245 0,00 min 0 lux -1,9 C 1,9 C
17.01.2004 19:30 3,2 C 3,3 C 69 % 1000 hPa 0,0 l/m 1,5 m/s (1 Bft) W-SW22.5 250 0,00 min 0 lux -1,9 C 3,2 C
17.01.2004 19:35 3,2 C 3,3 C 69 % 1000 hPa 0,0 l/m 2,2 m/s (1 Bft) W-SW22.5 250 0,00 min 0 lux -1,9 C 1,7 C
17.01.2004 19:40 3,2 C 3,3 C 69 % 1000 hPa 0,0 l/m 2,0 m/s (1 Bft) W-SW45 250 0,00 min 0 lux -1,9 C 2,5 C
17.01.2004 19:45 3,2 C 3,3 C 69 % 1000 hPa 0,0 l/m 2,4 m/s (1 Bft) W22.5 260 0,00 min 0 lux -1,9 C 1,3 C
17.01.2004 19:50 3,1 C 3,3 C 69 % 1000 hPa 0,0 l/m 0,4 m/s (0 Bft) W22.5 260 0,00 min 0 lux -2,0 C 3,1 C
17.01.2004 19:55 3,1 C 3,3 C 70 % 1000 hPa 0,0 l/m 1,5 m/s (1 Bft) SW22.5 215 0,00 min 0 lux -1,8 C 3,1 C
17.01.2004 20:00 3,1 C 3,3 C 70 % 1000 hPa 0,0 l/m 1,5 m/s (1 Bft) SW22.5 215 0,00 min 0 lux -1,8 C 3,1 C
17.01.2004 20:05 3,1 C 3,3 C 70 % 1000 hPa 0,0 l/m 1,7 m/s (1 Bft) S-SW67.5 200 0,00 min 0 lux -1,8 C 3,1 C
17.01.2004 20:10 3,0 C 3,3 C 70 % 1000 hPa 0,0 l/m 0,3 m/s (0 Bft) S-SO45 150 0,00 min 0 lux -1,9 C 3,0 C
17.01.2004 20:15 2,9 C 3,3 C 71 % 1000 hPa 0,0 l/m 0,1 m/s (0 Bft) S-SO45 165 0,00 min 0 lux -1,8 C 2,9 C
17.01.2004 20:20 2,9 C 3,3 C 71 % 1000 hPa 0,0 l/m 0,0 m/s (0 Bft) SO22.5 140 0,00 min 0 lux -1,8 C 2,9 C
17.01.2004 20:25 2,9 C 3,3 C 71 % 1000 hPa 0,0 l/m 0,0 m/s (0 Bft) S-SO 155 0,00 min 0 lux -1,8 C 2,9 C
17.01.2004 20:30 2,9 C 3,3 C 72 % 1000 hPa 0,0 l/m 0,1 m/s (0 Bft) SO22.5 140 0,00 min 0 lux -1,6 C 2,9 C
17.01.2004 20:35 2,9 C 3,3 C 72 % 1001 hPa 0,0 l/m 0,3 m/s (0 Bft) SO67.5 135 0,00 min 0 lux -1,6 C 2,9 C
17.01.2004 20:40 2,9 C 3,3 C 72 % 1001 hPa 0,0 l/m 0,0 m/s (0 Bft) S-SO45 155 0,00 min 0 lux -1,6 C 2,9 C
17.01.2004 20:45 2,9 C 3,3 C 72 % 1001 hPa 0,0 l/m 0,7 m/s (0 Bft) SO45 145 0,00 min 0 lux -1,6 C 2,9 C
17.01.2004 20:50 2,9 C 3,2 C 72 % 1001 hPa 0,0 l/m 0,0 m/s (0 Bft) S-SO22.5 150 0,00 min 0 lux -1,6 C 2,9 C
17.01.2004 20:55 2,9 C 3,2 C 73 % 1001 hPa 0,0 l/m 0,0 m/s (0 Bft) SO22.5 145 0,00 min 0 lux -1,5 C 2,9 C
17.01.2004 21:00 2,7 C 3,2 C 73 % 1001 hPa 0,0 l/m 0,0 m/s (0 Bft) SO22.5 135 0,00 min 0 lux -1,6 C 2,7 C
17.01.2004 21:05 2,8 C 3,2 C 74 % 1001 hPa 0,0 l/m 0,1 m/s (0 Bft) S22.5 170 0,00 min 0 lux -1,4 C 2,8 C
17.01.2004 21:10 2,7 C 3,2 C 73 % 1001 hPa 0,0 l/m 0,1 m/s (0 Bft) S-SW45 195 0,00 min 0 lux -1,6 C 2,7 C
17.01.2004 21:15 2,9 C 3,2 C 74 % 1001 hPa 0,0 l/m 0,0 m/s (0 Bft) W-SW 240 0,00 min 0 lux -1,3 C 2,9 C
17.01.2004 21:20 2,8 C 3,2 C 74 % 1001 hPa 0,0 l/m 0,0 m/s (0 Bft) W-SW 240 0,00 min 0 lux -1,4 C 2,8 C
17.01.2004 21:25 2,9 C 3,2 C 74 % 1001 hPa 0,0 l/m 0,0 m/s (0 Bft) SW 235 0,00 min 0 lux -1,3 C 2,9 C
17.01.2004 21:30 2,9 C 3,2 C 73 % 1001 hPa 0,0 l/m 0,3 m/s (0 Bft) W-SW45 245 0,00 min 0 lux -1,5 C 2,9 C
17.01.2004 21:35 2,8 C 3,2 C 73 % 1001 hPa 0,0 l/m 0,1 m/s (0 Bft) SW22.5 235 0,00 min 0 lux -1,5 C 2,8 C
17.01.2004 21:40 2,8 C 3,2 C 74 % 1001 hPa 0,0 l/m 0,0 m/s (0 Bft) SW 230 0,00 min 0 lux -1,4 C 2,8 C
17.01.2004 21:45 2,8 C 3,2 C 74 % 1001 hPa 0,0 l/m 0,1 m/s (0 Bft) SW22.5 235 0,00 min 0 lux -1,4 C 2,8 C
17.01.2004 21:50 2,8 C 3,2 C 73 % 1001 hPa 0,0 l/m 1,4 m/s (1 Bft) W-SW22.5 255 0,00 min 0 lux -1,5 C 2,8 C
17.01.2004 21:55 2,9 C 3,2 C 73 % 1002 hPa 0,0 l/m 0,2 m/s (0 Bft) W-NW22.5 290 0,00 min 0 lux -1,5 C 2,9 C
17.01.2004 22:00 2,9 C 3,2 C 72 % 1002 hPa 0,0 l/m 2,3 m/s (1 Bft) W-SW45 255 0,00 min 0 lux -1,6 C 1,1 C
17.01.2004 22:05 3,0 C 3,2 C 71 % 1002 hPa 0,0 l/m 2,1 m/s (1 Bft) W22.5 260 0,00 min 0 lux -1,7 C 2,1 C
17.01.2004 22:10 3,0 C 3,2 C 71 % 1002 hPa 0,0 l/m 1,2 m/s (1 Bft) W-SW22.5 250 0,00 min 0 lux -1,7 C 3,0 C
17.01.2004 22:15 3,0 C 3,3 C 71 % 1002 hPa 0,0 l/m 1,8 m/s (1 Bft) W22.5 260 0,00 min 0 lux -1,7 C 3,0 C
17.01.2004 22:20 3,0 C 3,2 C 71 % 1002 hPa 0,0 l/m 1,4 m/s (1 Bft) W-SW22.5 255 0,00 min 0 lux -1,7 C 3,0 C
17.01.2004 22:25 3,0 C 3,2 C 70 % 1002 hPa 0,0 l/m 2,0 m/s (1 Bft) W45 260 0,00 min 0 lux -1,9 C 2,1 C
17.01.2004 22:30 3,0 C 3,3 C 70 % 1002 hPa 0,0 l/m 1,3 m/s (1 Bft) W-SW22.5 250 0,00 min 0 lux -1,9 C 3,0 C
17.01.2004 22:35 3,0 C 3,3 C 70 % 1002 hPa 0,0 l/m 1,3 m/s (1 Bft) W-SW 250 0,00 min 0 lux -1,9 C 3,0 C
17.01.2004 22:40 3,0 C 3,3 C 70 % 1002 hPa 0,0 l/m 0,1 m/s (0 Bft) W-SW 245 0,00 min 0 lux -1,9 C 3,0 C
17.01.2004 22:45 3,0 C 3,3 C 70 % 1002 hPa 0,0 l/m 1,1 m/s (0 Bft) W-SW 240 0,00 min 0 lux -1,9 C 3,0 C
17.01.2004 22:50 3,0 C 3,3 C 70 % 1002 hPa 0,0 l/m 0,0 m/s (0 Bft) W-SW 240 0,00 min 0 lux -1,9 C 3,0 C
17.01.2004 22:55 3,0 C 3,3 C 71 % 1002 hPa 0,0 l/m 0,0 m/s (0 Bft) W-SW 240 0,00 min 0 lux -1,7 C 3,0 C
17.01.2004 23:00 2,8 C 3,3 C 72 % 1002 hPa 0,0 l/m 0,0 m/s (0 Bft) W-SW 240 0,00 min 0 lux -1,7 C 2,8 C
17.01.2004 23:05 2,9 C 3,3 C 72 % 1003 hPa 0,0 l/m 0,0 m/s (0 Bft) W-SW 240 0,00 min 0 lux -1,6 C 2,9 C
17.01.2004 23:10 2,8 C 3,3 C 73 % 1003 hPa 0,0 l/m 0,0 m/s (0 Bft) S-SO67.5 150 0,00 min 0 lux -1,5 C 2,8 C
17.01.2004 23:15 2,8 C 3,2 C 73 % 1003 hPa 0,0 l/m 0,0 m/s (0 Bft) O-SO 115 0,00 min 0 lux -1,5 C 2,8 C
17.01.2004 23:20 2,8 C 3,2 C 73 % 1003 hPa 0,0 l/m 0,0 m/s (0 Bft) O-SO 115 0,00 min 0 lux -1,5 C 2,8 C
17.01.2004 23:25 2,8 C 3,2 C 73 % 1003 hPa 0,0 l/m 0,0 m/s (0 Bft) O-SO 115 0,00 min 0 lux -1,5 C 2,8 C
17.01.2004 23:30 2,8 C 3,2 C 74 % 1003 hPa 0,0 l/m 0,0 m/s (0 Bft) O-SO 115 0,00 min 0 lux -1,4 C 2,8 C
17.01.2004 23:35 2,8 C 3,1 C 74 % 1003 hPa 0,0 l/m 0,0 m/s (0 Bft) O-SO 115 0,00 min 0 lux -1,4 C 2,8 C
17.01.2004 23:40 2,8 C 3,1 C 75 % 1003 hPa 0,0 l/m 0,0 m/s (0 Bft) O-SO 115 0,00 min 0 lux -1,2 C 2,8 C
17.01.2004 23:45 2,8 C 3,1 C 75 % 1003 hPa 0,0 l/m 0,0 m/s (0 Bft) O-SO 115 0,00 min 0 lux -1,2 C 2,8 C
17.01.2004 23:50 2,8 C 3,1 C 74 % 1003 hPa 0,0 l/m 0,0 m/s (0 Bft) O-SO 115 0,00 min 0 lux -1,4 C 2,8 C
17.01.2004 23:55 2,8 C 3,1 C 74 % 1003 hPa 0,0 l/m 0,0 m/s (0 Bft) O-SO 110 0,00 min 0 lux -1,4 C 2,8 C
_ Min-Zeit 08:40 08:55 13:15 00:00 - 20:20 - - - - 13:55 07:50
Minimum _ 2,0 C 2,4 C 59 % 993 hPa - 0,0 m/s (0 Bft) - - - - -2,7 C -10,4 C
_ Max-Zeit 13:10 13:20 08:45 23:05 00:00 07:50 - - 08:50 13:10 09:30 17:00
Maximum _ 5,3 C 5,4 C 84 % 1003 hPa 0,0 l/m 9,3 m/s
W-SW (5 Bft)
- - 5,00 min 52,7 klux -0,2 C 3,2 C
Durchschnitt _ 3,4 C 3,7 C 71 % 998 hPa #0,0 l/m 3,9 m/s (3 Bft) W-SW - #1:05 h 3,36 klux -1,4 C -2,2 C